Regional Weather Roundup
Issued by NWS

Home | Current Version | Previous Version | Text Only | Print | Product List | Glossary Off
Versions: 1 2 3 4 5 6 7 8 9 10 11 12 13 14 15 16 17 18 19 20 21 22 23 24 25 26 27 28 29 30 31 32 33 34 35 36 37 38 39 40 41 42 43 44 45 46

000
ASUS45 KBOU 181510
RWRCO

WEATHER ROUNDUP FOR COLORADO
NATIONAL WEATHER SERVICE DENVER/BOULDER CO
900 AM MDT WED APR 18 2018

NOTE: "FAIR" INDICATES FEW OR NO CLOUDS BELOW 12000 FEET WITH NO
SIGNIFICANT WEATHER AND/OR OBSTRUCTIONS TO VISIBILITY.

COZ001>005-013-030-031-181600-
...NORTHWEST COLORADO...

CITY           SKY/WX    TMP DP  RH WIND       PRES   REMARKS
CRAIG          FAIR      29  18  63 E8        30.33R WCI  21
HAYDEN         FAIR      27  17  66 E10       30.33S WCI  17
MEEKER         FAIR      27  15  61 CALM      30.31F
RANGELY        FAIR      31  18  58 CALM      30.32S
RABBIT EARS PA FAIR      14  12  92 W8        30.24R WCI   3
STEAMBOAT SPGS FAIR      24  18  77 CALM      30.31S
WALDEN         FAIR      27  10  50 W7        30.28R WCI  19
$$

COZ006>008-011-181600-
...WEST CENTRAL VALLEYS...

CITY           SKY/WX    TMP DP  RH WIND       PRES   REMARKS
GRAND JUNCTION FAIR      40  20  44 SE16      30.31R
MONTROSE       FAIR      34  10  37 CALM      30.34R
EAGLE          FAIR      27  18  69 CALM      30.36F
RIFLE          FAIR      30  22  72 CALM      30.34S
DELTA          FAIR      37  14  39 CALM      30.34S
NUCLA          FAIR      36   9  32 CALM      30.32S
$$

COZ017>023-064>068-181600-
...SOUTHWEST COLORADO...

CITY           SKY/WX    TMP DP  RH WIND       PRES   REMARKS
DURANGO        FAIR      34   4  28 E6        30.26R WCI  29
CORTEZ         FAIR      37   0  21 VRB3      30.25S
PAGOSA SPRINGS FAIR      35  -2  20 CALM      30.26S
TELLURIDE      FAIR      27   1  31 CALM      30.25S
WOLF CREEK PAS FAIR      21  -9  25 CALM      30.31R
$$

COZ009-010-012-014-032>034-037-058>063-181600-
...CENTRAL COLORADO...

CITY           SKY/WX    TMP DP  RH WIND       PRES   REMARKS
ASPEN          FAIR      26  10  50 SE8       30.28F WCI  18
BUENA VISTA    FAIR      31   1  26 NW16      30.26S WCI  20
COPPER MTN     NOT AVBL
BERTHOUD PASS  CLOUDY     5  -6  61 N20G32    30.16R WCI -15
COTTONWOOD PAS FAIR      30   9  40 CALM      30.25R
GUNNISON       FAIR      27  12  53 CALM      30.31R
GRANBY         FAIR      26  11  52 W5        30.30S WCI  21
KREMMLING      FAIR      34  12  40 CALM      30.32S
LEADVILLE      FAIR      19   4  51 NE8       30.24S WCI   9
SALIDA         FAIR      33   4  29 CALM      30.36S
SUNLIGHT       FAIR      14  10  85 E5        30.29R WCI   6
WILKERSON PASS FAIR      21 -13  21 NW8G23    30.24S WCI  12
$$

COZ069>075-181600-
...SAN LUIS VALLEY/SANGRE DE CRISTO MOUNTAINS...

CITY           SKY/WX    TMP DP  RH WIND       PRES   REMARKS
ALAMOSA        FAIR      32   5  32 CALM      30.29R
DEL NORTE      FAIR      30   1  29 CALM      30.28S
LA VETA PASS   FAIR      27  -4  26 SW6       30.36R WCI  20
SAGUACHE       NOT AVBL
$$

COZ035-036-038>040-181600-
...NORTHERN COLORADO FRONT RANGE...

CITY           SKY/WX    TMP DP  RH WIND       PRES   REMARKS
DENVER INTL AP FAIR      42  12  29 N7        30.25R
AURORA         MOSUNNY   41   7  24 N6        30.25R
FRONT RANGE AP SUNNY     43  12  28 NW8       30.26R
ERIE MUNI ARPT FAIR      44   8  22 SE6       30.30R
BOULDER MUN AP FAIR      43  10  26 E7        30.23R
CENTENNIAL     FAIR      41   9  26 VRB3      30.24R
BROOMFIELD     SUNNY     41   9  26 VRB5      30.24R
FORT COLLINS   FAIR      44   9  23 N23       30.23R
LONGMONT       FAIR      46  11  24 SE9       30.26R
$$

COZ041-046-047-076>085-087-088-181600-
...PIKES PEAK/PALMER DIVIDE AND SOUTHERN FOOTHILLS...

CITY           SKY/WX    TMP DP  RH WIND       PRES   REMARKS
COLO. SPRINGS  FAIR      42   1  18 NW3       30.24R
A. F. ACADEMY  FAIR      40  -1  17 CALM      30.24R
SCHRIEVER AFB  NOT AVBL
CHEYENNE MTN   FAIR      39  -3  17 CALM      30.19R
ELLICOTT         N/A    N/A N/A N/A N10       30.23S
FALCON         FAIR      40  -6  14 NW9       30.26R
FORT CARSON    FAIR      43   4  20 NE3       30.23R
LIMON          FAIR      42  11  28 NW26G35   30.23R
MONUMENT HILL  FAIR      34   3  27 NW5       30.25S WCI  30
CANON CITY     FAIR      45   5  19 W13       30.26R
WALSENBURG     NOT AVBL
TRINIDAD       FAIR      43   9  24 NW7       30.26R
$$

COZ042>045-048>051-090-091-181600-
...NORTHEAST COLORADO...

CITY           SKY/WX    TMP DP  RH WIND       PRES   REMARKS
GREELEY ARPT   FAIR      45  12  26 NW25G31   30.24F
AKRON          FAIR      43  20  39 N35G45    30.20R
BURLINGTON     FAIR      47  21  35 NW29G41   30.19R
WRAY           FAIR      46  23  39 NW30G37   30.17R
YUMA           FAIR      43  21  42 NW28G36   30.18S
STERLING       FAIR      45  21  39 NW32G43   30.19R
HOLYOKE        FAIR      46  27  46 NW26G38   30.16R
FORT MORGAN    FAIR      46  13  26 NW25G36   30.24R
$$

COZ086-089-092>099-181600-
...SOUTHEAST COLORADO...

CITY           SKY/WX    TMP DP  RH WIND       PRES   REMARKS
PUEBLO         FAIR      46   7  20 NW5       30.25S
LA JUNTA       FAIR      50   8  18 NW14G22   30.26R
LAMAR          FAIR      52  12  20 NW25G38   30.21R
SPRINGFIELD      N/A     47  12  24 N26G36    30.22R
$$




USA.gov is the U.S. government's official web portal to all federal, state and local government web resources and services.